, FL

(GMT )
Bonifay

Weather History for K1J0 - August, 2019

Change the Weather History Date:

Wednesday, August 7, 2019

  Actual Average Record
Temperature  
Mean Temperature 83 °F -  
Max Temperature 93 °F - - ()
Min Temperature 73 °F - - ()
Cooling Degree Days 18    
Growing Degree Days 33 (Base 50)    
Moisture  
Dew Point 74 °F    
Average Humidity 82    
Maximum Humidity 97    
Minimum Humidity 49    
Precipitation  
Precipitation 0.20 in - - ()
Sea Level Pressure  
Sea Level Pressure 29.83 in    
Wind  
Wind Speed 3 mph (SSW)    
Max Wind Speed 10 mph    
Max Gust Speed 23 mph    
Visibility 8 miles    
Events Rain    
Averages and records for this station are not official NWS values.
T = Trace of Precipitation, MM = Missing Value Source: NWS Daily Summary

Daily Weather History Graph

Daily Weather History Graph

Search for Another Location

Airport or City:

Astronomy

Aug. 07, 2019 Rise Set
Actual Time 7:03 AM EDT 8:32 PM EDT
Civil Twilight 6:37 AM EDT 8:58 PM EDT
Nautical Twilight 6:06 AM EDT 9:29 PM EDT
Astronomical Twilight 5:34 AM EDT 10:01 PM EDT
Moon 2:04 PM EDT (8/7) 12:45 AM EDT (8/7)
Length of Visible Light 14h 20m
Length of Day
13h 28m
Waxing Crescent, 49% of the Moon is Illuminated
Aug 7
Waxing Crescent
Aug 7
First Quarter
Aug 15
Full
Aug 23
Last Quarter
Aug 30
New

Hourly Weather History & Observations

Time (EDT) Temp. Heat Index Dew Point Humidity Pressure Visibility Wind Dir Wind Speed Gust Speed Precip Events Conditions
12:58 AM 75.9 °F - 73.9 °F 94% 29.83 in 10.0 mi South 4.6 mph - N/A   Clear
1:58 AM 75.9 °F - 73.9 °F 94% 29.82 in 9.0 mi Calm Calm - N/A   Clear
2:58 AM 75.0 °F - 73.0 °F 94% 29.81 in 8.0 mi Calm Calm - N/A   Clear
3:58 AM 75.0 °F - 73.0 °F 94% 29.80 in 7.0 mi Calm Calm - N/A   Clear
4:58 AM 73.9 °F - 73.0 °F 97% 29.81 in 6.0 mi Calm Calm - N/A   Clear
5:58 AM 73.9 °F - 73.0 °F 97% 29.82 in 7.0 mi South 4.6 mph - N/A   Clear
6:58 AM 73.9 °F - 73.0 °F 97% 29.83 in 4.0 mi Calm Calm - N/A   Clear
7:58 AM 77.0 °F - 73.9 °F 90% 29.83 in 8.0 mi Calm Calm - N/A   Clear
8:58 AM 80.1 °F 85.1 °F 75.0 °F 85% 29.83 in 10.0 mi Calm Calm - N/A   Clear
11:58 AM 89.1 °F 99.1 °F 75.0 °F 63% 29.86 in 10.0 mi WSW 4.6 mph - N/A   Clear
12:58 PM 93.0 °F 105.3 °F 75.9 °F 57% 29.85 in 10.0 mi Variable 4.6 mph - N/A   Clear
1:58 PM 91.9 °F 100.7 °F 73.0 °F 54% 29.82 in 10.0 mi Calm Calm - N/A   Scattered Clouds
3:58 PM 93.9 °F 102.1 °F 72.0 °F 49% 29.78 in 10.0 mi SSW 4.6 mph - N/A   Partly Cloudy
4:58 PM 93.0 °F 103.2 °F 73.9 °F 54% 29.76 in 10.0 mi Variable 3.5 mph - N/A   Clear
5:58 PM 91.0 °F 100.4 °F 73.9 °F 57% 29.77 in 10.0 mi SSW 8.1 mph - N/A   Clear
6:48 PM 80.1 °F 85.4 °F 75.9 °F 87% 29.91 in 2.5 mi WSW 8.1 mph - N/A Rain Rain
6:58 PM 80.1 °F 85.8 °F 77.0 °F 90% 29.79 in 1.5 mi WSW 10.4 mph - N/A Rain Heavy Rain
7:35 PM 78.1 °F - 73.0 °F 84% 29.92 in 2.5 mi SSW 6.9 mph 23.0 mph 0.06 in Rain Rain
7:46 PM 78.1 °F - 73.9 °F 87% 29.92 in 0.8 mi SSW 6.9 mph - 0.20 in Rain Heavy Rain
7:58 PM 77.0 °F - 73.9 °F 90% 29.80 in 10.0 mi WSW 5.8 mph - 0.20 in   Overcast
8:58 PM 79.0 °F - 75.0 °F 88% 29.82 in 10.0 mi Calm Calm - N/A   Mostly Cloudy
9:58 PM 77.0 °F - 75.0 °F 94% 29.83 in 10.0 mi South 3.5 mph - N/A   Partly Cloudy
11:58 PM 77.0 °F - 73.9 °F 90% 29.83 in 9.0 mi Calm Calm - N/A   Clear